{"data":{"norad_id":55471,"intl_designator":"2023-015Y","name":"STARLINK-5711","alt_names":[],"object_type":"PAYLOAD","status":"ACTIVE","operator":null,"country":"US","launch_date":"2023-02-02","launch_site_code":"AFETR","launch_vehicle":null,"mission":null,"orbit_class":"UNKNOWN","rcs_meters":null,"size_class":null,"mass_kg":null,"dimensions":null,"purposes":["comms"],"wikipedia_slug":null,"has_3d_model":false,"image_url":null,"decayed_at":null,"tle_current":{"epoch":"2026-09-20T14:23:26.800800Z","epoch_age_seconds":91811,"freshness":"FRESH","line1":"1 55471U 23015Y   26263.59961575  .00000342  00000+0  21948-4 0  9995","line2":"2 55471  43.0037 307.7436 0001643 267.8578  92.2085 15.27574393200530","mean_motion":15.27574393,"eccentricity":0.0001643,"inclination_deg":43.0037,"raan_deg":307.7436,"arg_perigee_deg":267.8578,"mean_anomaly_deg":92.2085,"bstar":2.1948e-5,"rev_number":20053,"period_min":94.26709472211,"perigee_km":481.93858983203,"apogee_km":484.1931811002,"semimajor_km":6861.2028854661,"source":"CELESTRAK","updated_at":"2026-09-21T09:00:33.232157Z"}}}